Home   Weather   Selkirk   Past weeks
Flag for Canada

Past Weather in Selkirk, Manitoba, Canada — Yesterday and Last 2 Weeks

Now
83 °F

Warm.


Feels Like: 83 °F
Forecast: 75 / 61 °F
Wind: 5 mph from West

Location: Winnipeg The Forks Man

Current Time: Jul 15, 2019 at 8:37:33 pm

Latest Report: Jul 15, 2019 at 7:00 pm


Visibility: N/A

Pressure: 29.69 "Hg

Humidity: 46%

Dew Point: 60 °F

Location of SelkirkLocation

Past Weather in Selkirk — Graph

°F

Selkirk Temperature Yesterday

Maximum temperature yesterday: 87 °F (at 7:00 pm)
Minimum temperature yesterday: 65 °F (at 8:00 am)
Average temperature yesterday: 77 °F

High & Low Weather Summary for the Past Weeks

 TemperatureHumidityPressure
High87 °F (Jul 14, 7:00 pm)95% (Jul 10, 3:00 am)30.31 "Hg (Jul 10, 3:00 am)
Low53 °F (Jul 6, 7:00 am)19% (Jun 30, 7:00 pm)29.59 "Hg (Jul 15, 11:00 am)
Average72 °F60%29.90 "Hg
* Reported Jun 30 7:00 pm — Jul 15 7:00 pm, Selkirk. Weather by CustomWeather, © 2019

Note: Actual official high and low records may vary slightly from our data, if they occured in-between our weather recording intervals... More about our weather records

Advertising

Selkirk Weather History for the Previous 24 Hours

Scroll right to see more
 ConditionsComfort  
Time TempWeatherWind HumidityBarometerVisibility
7:00 pm
Mon, Jul 15
83 °FWarm.5 mph46%29.69 "HgN/A
6:00 pm82 °FWarm.6 mph44%29.69 "HgN/A
5:00 pm82 °FWarm.7 mph46%29.69 "HgN/A
4:00 pm81 °FWarm.6 mph53%29.69 "HgN/A
3:00 pm81 °FWarm.7 mph52%29.67 "HgN/A
2:00 pm82 °FWarm.7 mph55%29.65 "HgN/A
1:00 pm83 °FWarm.6 mph58%29.62 "HgN/A
12:00 pm81 °FWarm.7 mph63%29.62 "HgN/A
11:00 am79 °FWarm.8 mph70%29.59 "HgN/A
10:00 am76 °FMild.3 mph77%29.60 "HgN/A
9:00 am70 °FMild.5 mph85%29.67 "HgN/A
8:00 am70 °FMild.7 mph84%29.70 "HgN/A
7:00 am75 °FMild.3 mph87%29.65 "HgN/A
6:00 am76 °FMild.3 mph89%29.66 "HgN/A
5:00 am76 °FMild.2 mph88%29.67 "HgN/A
4:00 am77 °FMild.5 mph85%29.70 "HgN/A
3:00 am76 °FMild.2 mph84%29.71 "HgN/A
2:00 am76 °FMild.1 mph85%29.73 "HgN/A
1:00 am77 °FMild.1 mph83%29.75 "HgN/A
12:00 am78 °FWarm.2 mph83%29.76 "HgN/A
11:00 pm
Sun, Jul 14
79 °FWarm.1 mph75%29.77 "HgN/A
10:00 pm81 °FWarm.1 mph74%29.77 "HgN/A
9:00 pm84 °FWarm.3 mph64%29.77 "HgN/A
8:00 pm86 °FWarm.6 mph59%29.78 "HgN/A
Weather by CustomWeather, © 2019

See weather overview

LIVE PARTIAL LUNAR ECLIPSE – Watch the eclipse as it happens